Year,Month,Day,Hour,Minute,Value (Times are PST for temperature in C)
2015,07,19,00,00,16.90
2015,07,19,00,01,16.90
2015,07,19,00,02,16.90
2015,07,19,00,03,16.90
2015,07,19,00,04,16.90
2015,07,19,00,05,16.90
2015,07,19,00,06,16.90
2015,07,19,00,07,16.80
2015,07,19,00,08,16.80
2015,07,19,00,09,16.80
2015,07,19,00,10,16.80
2015,07,19,00,11,16.80
2015,07,19,00,12,16.80
2015,07,19,00,13,16.80
2015,07,19,00,14,16.80
2015,07,19,00,15,16.80
2015,07,19,00,16,16.80
2015,07,19,00,17,16.80
2015,07,19,00,18,16.80
2015,07,19,00,19,16.80
2015,07,19,00,20,16.80
2015,07,19,00,21,16.80
2015,07,19,00,22,16.80
2015,07,19,00,23,16.80
2015,07,19,00,24,16.80
2015,07,19,00,25,16.80
2015,07,19,00,26,16.80
2015,07,19,00,27,16.80
2015,07,19,00,28,16.90
2015,07,19,00,29,16.90
2015,07,19,00,30,16.90
2015,07,19,00,31,17.00
2015,07,19,00,32,17.00
2015,07,19,00,33,17.00
2015,07,19,00,34,17.10
2015,07,19,00,35,17.10
2015,07,19,00,36,17.10
2015,07,19,00,37,17.20
2015,07,19,00,38,17.20
2015,07,19,00,39,17.20
2015,07,19,00,40,17.20
2015,07,19,00,41,17.20
2015,07,19,00,42,17.20
2015,07,19,00,43,17.20
2015,07,19,00,44,17.10
2015,07,19,00,45,17.10
2015,07,19,00,46,17.10
2015,07,19,00,47,17.10
2015,07,19,00,48,17.10
2015,07,19,00,49,17.10
2015,07,19,00,50,17.10
2015,07,19,00,51,17.10
2015,07,19,00,52,17.10
2015,07,19,00,53,17.10
2015,07,19,00,54,17.10
2015,07,19,00,55,17.00
2015,07,19,00,56,17.00
2015,07,19,00,57,17.00
2015,07,19,00,58,17.00
2015,07,19,00,59,17.00
2015,07,19,01,00,17.00
2015,07,19,01,01,17.00
2015,07,19,01,02,17.00
2015,07,19,01,03,17.00
2015,07,19,01,04,17.00
2015,07,19,01,05,17.00
2015,07,19,01,06,17.00
2015,07,19,01,07,17.00
2015,07,19,01,08,16.90
2015,07,19,01,09,16.90
2015,07,19,01,10,16.90
2015,07,19,01,11,16.90
2015,07,19,01,12,16.90
2015,07,19,01,13,16.90
2015,07,19,01,14,16.90
2015,07,19,01,15,16.80
2015,07,19,01,16,16.80
2015,07,19,01,17,16.80
2015,07,19,01,18,16.80
2015,07,19,01,19,16.80
2015,07,19,01,20,16.80
2015,07,19,01,21,16.80
2015,07,19,01,22,16.80
2015,07,19,01,23,16.80
2015,07,19,01,24,16.80
2015,07,19,01,25,16.80
2015,07,19,01,26,16.80
2015,07,19,01,27,16.80
2015,07,19,01,28,16.80
2015,07,19,01,29,16.70
2015,07,19,01,30,16.70
2015,07,19,01,31,16.70
2015,07,19,01,32,16.70
2015,07,19,01,33,16.70
2015,07,19,01,34,16.70
2015,07,19,01,35,16.70
2015,07,19,01,36,16.60
2015,07,19,01,37,16.60
2015,07,19,01,38,16.60
2015,07,19,01,39,16.60
2015,07,19,01,40,16.60
2015,07,19,01,41,16.60
2015,07,19,01,42,16.60
2015,07,19,01,43,16.60
2015,07,19,01,44,16.60
2015,07,19,01,45,16.60
2015,07,19,01,46,16.50
2015,07,19,01,47,16.50
2015,07,19,01,48,16.50
2015,07,19,01,49,16.50
2015,07,19,01,50,16.40
2015,07,19,01,51,16.40
2015,07,19,01,52,16.40
2015,07,19,01,53,16.40
2015,07,19,01,54,16.40
2015,07,19,01,55,16.40
2015,07,19,01,56,16.40
2015,07,19,01,57,16.40
2015,07,19,01,58,16.40
2015,07,19,01,59,16.40
2015,07,19,02,00,16.40
2015,07,19,02,01,16.30
2015,07,19,02,02,16.30
2015,07,19,02,03,16.30
2015,07,19,02,04,16.30
2015,07,19,02,05,16.30
2015,07,19,02,06,16.30
2015,07,19,02,07,16.20
2015,07,19,02,08,16.20
2015,07,19,02,09,16.20
2015,07,19,02,10,16.20
2015,07,19,02,11,16.20
2015,07,19,02,12,16.20
2015,07,19,02,13,16.10
2015,07,19,02,14,16.10
2015,07,19,02,15,16.10
2015,07,19,02,16,16.10
2015,07,19,02,17,16.10
2015,07,19,02,18,16.10
2015,07,19,02,19,16.10
2015,07,19,02,20,16.10
2015,07,19,02,21,16.10
2015,07,19,02,22,16.10
2015,07,19,02,23,16.10
2015,07,19,02,24,16.20
2015,07,19,02,25,16.20
2015,07,19,02,26,16.20
2015,07,19,02,27,16.10
2015,07,19,02,28,16.10
2015,07,19,02,29,16.10
2015,07,19,02,30,16.10
2015,07,19,02,31,16.10
2015,07,19,02,32,16.10
2015,07,19,02,33,16.10
2015,07,19,02,34,16.10
2015,07,19,02,35,16.10
2015,07,19,02,36,16.00
2015,07,19,02,37,16.00
2015,07,19,02,38,16.00
2015,07,19,02,39,16.00
2015,07,19,02,40,16.00
2015,07,19,02,41,16.00
2015,07,19,02,42,16.00
2015,07,19,02,43,16.00
2015,07,19,02,44,16.00
2015,07,19,02,45,15.90
2015,07,19,02,46,15.90
2015,07,19,02,47,15.90
2015,07,19,02,48,15.90
2015,07,19,02,49,15.90
2015,07,19,02,50,15.90
2015,07,19,02,51,15.90
2015,07,19,02,52,15.90
2015,07,19,02,53,15.90
2015,07,19,02,54,15.90
2015,07,19,02,55,15.90
2015,07,19,02,56,15.80
2015,07,19,02,57,15.80
2015,07,19,02,58,15.80
2015,07,19,02,59,15.80
2015,07,19,03,00,15.80
2015,07,19,03,01,15.80
2015,07,19,03,02,15.80
2015,07,19,03,03,15.80
2015,07,19,03,04,15.80
2015,07,19,03,05,15.80
2015,07,19,03,06,15.80
2015,07,19,03,07,15.80
2015,07,19,03,08,15.80
2015,07,19,03,09,15.80
2015,07,19,03,10,15.80
2015,07,19,03,11,15.80
2015,07,19,03,12,15.80
2015,07,19,03,13,15.80
2015,07,19,03,14,15.80
2015,07,19,03,15,15.80
2015,07,19,03,16,15.80
2015,07,19,03,17,15.70
2015,07,19,03,18,15.70
2015,07,19,03,19,15.70
2015,07,19,03,20,15.70
2015,07,19,03,21,15.70
2015,07,19,03,22,15.70
2015,07,19,03,23,15.70
2015,07,19,03,24,15.70
2015,07,19,03,25,15.70
2015,07,19,03,26,15.70
2015,07,19,03,27,15.70
2015,07,19,03,28,15.70
2015,07,19,03,29,15.70
2015,07,19,03,30,15.70
2015,07,19,03,31,15.70
2015,07,19,03,32,15.70
2015,07,19,03,33,15.70
2015,07,19,03,34,15.70
2015,07,19,03,35,15.70
2015,07,19,03,36,15.70
2015,07,19,03,37,15.70
2015,07,19,03,38,15.70
2015,07,19,03,39,15.70
2015,07,19,03,40,15.80
2015,07,19,03,41,15.80
2015,07,19,03,42,15.80
2015,07,19,03,43,15.70
2015,07,19,03,44,15.70
2015,07,19,03,45,15.70
2015,07,19,03,46,15.70
2015,07,19,03,47,15.70
2015,07,19,03,48,15.70
2015,07,19,03,49,15.70
2015,07,19,03,50,15.70
2015,07,19,03,51,15.70
2015,07,19,03,52,15.70
2015,07,19,03,53,15.70
2015,07,19,03,54,15.70
2015,07,19,03,55,15.70
2015,07,19,03,56,15.70
2015,07,19,03,57,15.70
2015,07,19,03,58,15.70
2015,07,19,03,59,15.70
2015,07,19,04,00,15.70
2015,07,19,04,01,15.80
2015,07,19,04,02,15.80
2015,07,19,04,03,15.80
2015,07,19,04,04,15.80
2015,07,19,04,05,15.80
2015,07,19,04,06,15.80
2015,07,19,04,07,15.70
2015,07,19,04,08,15.70
2015,07,19,04,09,15.70
2015,07,19,04,10,15.80
2015,07,19,04,11,15.80
2015,07,19,04,12,15.80
2015,07,19,04,13,15.80
2015,07,19,04,14,15.80
2015,07,19,04,15,15.80
2015,07,19,04,16,15.80
2015,07,19,04,17,15.80
2015,07,19,04,18,15.80
2015,07,19,04,19,15.80
2015,07,19,04,20,15.80
2015,07,19,04,21,15.80
2015,07,19,04,22,15.80
2015,07,19,04,23,15.80
2015,07,19,04,24,15.80
2015,07,19,04,25,15.80
2015,07,19,04,26,15.80
2015,07,19,04,27,15.80
2015,07,19,04,28,15.80
2015,07,19,04,29,15.80
2015,07,19,04,30,15.80
2015,07,19,04,31,15.80
2015,07,19,04,32,15.80
2015,07,19,04,33,15.80
2015,07,19,04,34,15.90
2015,07,19,04,35,15.90
2015,07,19,04,36,15.90
2015,07,19,04,37,16.00
2015,07,19,04,38,16.00
2015,07,19,04,39,16.10
2015,07,19,04,40,16.10
2015,07,19,04,41,16.10
2015,07,19,04,42,16.20
2015,07,19,04,43,16.20
2015,07,19,04,44,16.20
2015,07,19,04,45,16.20
2015,07,19,04,46,16.20
2015,07,19,04,47,16.30
2015,07,19,04,48,16.30
2015,07,19,04,49,16.30
2015,07,19,04,50,16.30
2015,07,19,04,51,16.30
2015,07,19,04,52,16.40
2015,07,19,04,53,16.40
2015,07,19,04,54,16.40
2015,07,19,04,55,16.50
2015,07,19,04,56,16.50
2015,07,19,04,57,16.60
2015,07,19,04,58,16.60
2015,07,19,04,59,16.60
2015,07,19,05,00,16.60
2015,07,19,05,01,16.70
2015,07,19,05,02,16.70
2015,07,19,05,03,16.70
2015,07,19,05,04,16.70
2015,07,19,05,05,16.70
2015,07,19,05,06,16.70
2015,07,19,05,07,16.80
2015,07,19,05,08,16.80
2015,07,19,05,09,16.80
2015,07,19,05,10,16.80
2015,07,19,05,11,16.80
2015,07,19,05,12,16.80
2015,07,19,05,13,16.80
2015,07,19,05,14,16.70
2015,07,19,05,15,16.70
2015,07,19,05,16,16.70
2015,07,19,05,17,16.70
2015,07,19,05,18,16.70
2015,07,19,05,19,16.70
2015,07,19,05,20,16.70
2015,07,19,05,21,16.70
2015,07,19,05,22,16.70
2015,07,19,05,23,16.70
2015,07,19,05,24,16.70
2015,07,19,05,25,16.70
2015,07,19,05,26,16.60
2015,07,19,05,27,16.60
2015,07,19,05,28,16.60
2015,07,19,05,29,16.60
2015,07,19,05,30,16.60
2015,07,19,05,31,16.60
2015,07,19,05,32,16.60
2015,07,19,05,33,16.60
2015,07,19,05,34,16.60
2015,07,19,05,35,16.60
2015,07,19,05,36,16.60
2015,07,19,05,37,16.60
2015,07,19,05,38,16.60
2015,07,19,05,39,16.60
2015,07,19,05,40,16.60
2015,07,19,05,41,16.60
2015,07,19,05,42,16.60
2015,07,19,05,43,16.70
2015,07,19,05,44,16.70
2015,07,19,05,45,16.70
2015,07,19,05,46,16.70
2015,07,19,05,47,16.70
2015,07,19,05,48,16.70
2015,07,19,05,49,16.70
2015,07,19,05,50,16.70
2015,07,19,05,51,16.70
2015,07,19,05,52,16.70
2015,07,19,05,53,16.70
2015,07,19,05,54,16.70
2015,07,19,05,55,16.70
2015,07,19,05,56,16.70
2015,07,19,05,57,16.70
2015,07,19,05,58,16.70
2015,07,19,05,59,16.70
2015,07,19,06,00,16.70
2015,07,19,06,01,16.70
2015,07,19,06,02,16.60
2015,07,19,06,03,16.60
2015,07,19,06,04,16.50
2015,07,19,06,05,16.40
2015,07,19,06,06,16.40
2015,07,19,06,07,16.30
2015,07,19,06,08,16.20
2015,07,19,06,09,16.20
2015,07,19,06,10,16.10
2015,07,19,06,11,16.10
2015,07,19,06,12,16.10
2015,07,19,06,13,16.00
2015,07,19,06,14,16.00
2015,07,19,06,15,16.00
2015,07,19,06,16,16.00
2015,07,19,06,17,15.90
2015,07,19,06,18,15.90
2015,07,19,06,19,15.90
2015,07,19,06,20,15.90
2015,07,19,06,21,15.90
2015,07,19,06,22,15.90
2015,07,19,06,23,15.90
2015,07,19,06,24,15.90
2015,07,19,06,25,15.90
2015,07,19,06,26,15.90
2015,07,19,06,27,15.90
2015,07,19,06,28,15.90
2015,07,19,06,29,15.90
2015,07,19,06,30,15.90
2015,07,19,06,31,15.90
2015,07,19,06,32,16.00
2015,07,19,06,33,16.00
2015,07,19,06,34,16.10
2015,07,19,06,35,16.10
2015,07,19,06,36,16.10
2015,07,19,06,37,16.20
2015,07,19,06,38,16.20
2015,07,19,06,39,16.30
2015,07,19,06,40,16.40
2015,07,19,06,41,16.50
2015,07,19,06,42,16.50
2015,07,19,06,43,16.60
2015,07,19,06,44,16.60
2015,07,19,06,45,16.60
2015,07,19,06,46,16.60
2015,07,19,06,47,16.60
2015,07,19,06,48,16.60
2015,07,19,06,49,16.60
2015,07,19,06,50,16.60
2015,07,19,06,51,16.60
2015,07,19,06,52,16.60
2015,07,19,06,53,16.70
2015,07,19,06,54,16.70
2015,07,19,06,55,16.70
2015,07,19,06,56,16.80
2015,07,19,06,57,16.80
2015,07,19,06,58,16.90
2015,07,19,06,59,17.00
2015,07,19,07,00,17.10
2015,07,19,07,01,17.20
2015,07,19,07,02,17.30
2015,07,19,07,03,17.40
2015,07,19,07,04,17.40
2015,07,19,07,05,17.50
2015,07,19,07,06,17.50
2015,07,19,07,07,17.60
2015,07,19,07,08,17.60
2015,07,19,07,09,17.60
2015,07,19,07,10,17.70
2015,07,19,07,11,17.70
2015,07,19,07,12,17.70
2015,07,19,07,13,17.80
2015,07,19,07,14,17.80
2015,07,19,07,15,17.90
2015,07,19,07,16,17.90
2015,07,19,07,17,18.00
2015,07,19,07,18,18.00
2015,07,19,07,19,18.10
2015,07,19,07,20,18.20
2015,07,19,07,21,18.30
2015,07,19,07,22,18.40
2015,07,19,07,23,18.50
2015,07,19,07,24,18.60
2015,07,19,07,25,18.70
2015,07,19,07,26,18.70
2015,07,19,07,27,18.70
2015,07,19,07,28,18.70
2015,07,19,07,29,18.60
2015,07,19,07,30,18.40
2015,07,19,07,31,18.30
2015,07,19,07,32,18.20
2015,07,19,07,33,18.10
2015,07,19,07,34,18.00
2015,07,19,07,35,17.80
2015,07,19,07,36,17.80
2015,07,19,07,37,17.70
2015,07,19,07,38,17.70
2015,07,19,07,39,17.60
2015,07,19,07,40,17.60
2015,07,19,07,41,17.50
2015,07,19,07,42,17.50
2015,07,19,07,43,17.50
2015,07,19,07,44,17.50
2015,07,19,07,45,17.50
2015,07,19,07,46,17.50
2015,07,19,07,47,17.50
2015,07,19,07,48,17.50
2015,07,19,07,49,17.40
2015,07,19,07,50,17.40
2015,07,19,07,51,17.40
2015,07,19,07,52,17.40
2015,07,19,07,53,17.50
2015,07,19,07,54,17.50
2015,07,19,07,55,17.60
2015,07,19,07,56,17.60
2015,07,19,07,57,17.60
2015,07,19,07,58,17.70
2015,07,19,07,59,17.70
2015,07,19,08,00,17.80
2015,07,19,08,01,17.80
2015,07,19,08,02,17.90
2015,07,19,08,03,18.00
2015,07,19,08,04,18.20
2015,07,19,08,05,18.30
2015,07,19,08,06,18.50
2015,07,19,08,07,18.80
2015,07,19,08,08,19.00
2015,07,19,08,09,19.20
2015,07,19,08,10,19.40
2015,07,19,08,11,19.70
2015,07,19,08,12,19.90
2015,07,19,08,13,20.10
2015,07,19,08,14,20.40
2015,07,19,08,15,20.60
2015,07,19,08,16,20.80
2015,07,19,08,17,21.00
2015,07,19,08,18,21.20
2015,07,19,08,19,21.40
2015,07,19,08,20,21.60
2015,07,19,08,21,21.70
2015,07,19,08,22,21.80
2015,07,19,08,23,22.00
2015,07,19,08,24,22.10
2015,07,19,08,25,22.10
2015,07,19,08,26,22.20
2015,07,19,08,27,22.30
2015,07,19,08,28,22.30
2015,07,19,08,29,22.40
2015,07,19,08,30,22.50
2015,07,19,08,31,22.50
2015,07,19,08,32,22.50
2015,07,19,08,33,22.60
2015,07,19,08,34,22.60
2015,07,19,08,35,22.60
2015,07,19,08,36,22.60
2015,07,19,08,37,22.60
2015,07,19,08,38,22.60
2015,07,19,08,39,22.60
2015,07,19,08,40,22.60
2015,07,19,08,41,22.60
2015,07,19,08,42,22.60
2015,07,19,08,43,22.60
2015,07,19,08,44,22.50
2015,07,19,08,45,22.50
2015,07,19,08,46,22.50
2015,07,19,08,47,22.50
2015,07,19,08,48,22.50
2015,07,19,08,49,22.50
2015,07,19,08,50,22.50
2015,07,19,08,51,22.40
2015,07,19,08,52,22.40
2015,07,19,08,53,22.40
2015,07,19,08,54,22.40
2015,07,19,08,55,22.30
2015,07,19,08,56,22.30
2015,07,19,08,57,22.30
2015,07,19,08,58,22.30
2015,07,19,08,59,22.20
2015,07,19,09,00,22.20
2015,07,19,09,01,22.10
2015,07,19,09,02,22.10
2015,07,19,09,03,22.10
2015,07,19,09,04,22.10
2015,07,19,09,05,22.10
2015,07,19,09,06,22.10
2015,07,19,09,07,22.10
2015,07,19,09,08,22.20
2015,07,19,09,09,22.20
2015,07,19,09,10,22.30
2015,07,19,09,11,22.30
2015,07,19,09,12,22.40
2015,07,19,09,13,22.50
2015,07,19,09,14,22.50
2015,07,19,09,15,22.60
2015,07,19,09,16,22.60
2015,07,19,09,17,22.60
2015,07,19,09,18,22.60
2015,07,19,09,19,22.60
2015,07,19,09,20,22.60
2015,07,19,09,21,22.60
2015,07,19,09,22,22.60
2015,07,19,09,23,22.60
2015,07,19,09,24,22.60
2015,07,19,09,25,22.50
2015,07,19,09,26,22.40
2015,07,19,09,27,22.40
2015,07,19,09,28,22.30
2015,07,19,09,29,22.20
2015,07,19,09,30,22.20
2015,07,19,09,31,22.10
2015,07,19,09,32,22.10
2015,07,19,09,33,22.10
2015,07,19,09,34,22.00
2015,07,19,09,35,22.00
2015,07,19,09,36,21.90
2015,07,19,09,37,21.90
2015,07,19,09,38,22.00
2015,07,19,09,39,22.00
2015,07,19,09,40,22.00
2015,07,19,09,41,21.90
2015,07,19,09,42,21.80
2015,07,19,09,43,21.60
2015,07,19,09,44,21.50
2015,07,19,09,45,21.40
2015,07,19,09,46,21.30
2015,07,19,09,47,21.30
2015,07,19,09,48,21.20
2015,07,19,09,49,21.20
2015,07,19,09,50,21.20
2015,07,19,09,51,21.20
2015,07,19,09,52,21.20
2015,07,19,09,53,21.20
2015,07,19,09,54,21.30
2015,07,19,09,55,21.20
2015,07,19,09,56,21.10
2015,07,19,09,57,21.00
2015,07,19,09,58,20.90
2015,07,19,09,59,20.80
2015,07,19,10,00,20.70
2015,07,19,10,01,20.60
2015,07,19,10,02,20.50
2015,07,19,10,03,20.40
2015,07,19,10,04,20.30
2015,07,19,10,05,20.30
2015,07,19,10,06,20.30
2015,07,19,10,07,20.20
2015,07,19,10,08,20.20
2015,07,19,10,09,20.20
2015,07,19,10,10,20.10
2015,07,19,10,11,20.10
2015,07,19,10,12,20.10
2015,07,19,10,13,20.10
2015,07,19,10,14,20.10
2015,07,19,10,15,20.10
2015,07,19,10,16,20.10
2015,07,19,10,17,20.10
2015,07,19,10,18,20.10
2015,07,19,10,19,20.20
2015,07,19,10,20,20.30
2015,07,19,10,21,20.40
2015,07,19,10,22,20.60
2015,07,19,10,23,20.70
2015,07,19,10,24,20.90
2015,07,19,10,25,21.00
2015,07,19,10,26,21.10
2015,07,19,10,27,21.00
2015,07,19,10,28,20.90
2015,07,19,10,29,20.90
2015,07,19,10,30,20.80
2015,07,19,10,31,20.70
2015,07,19,10,32,20.60
2015,07,19,10,33,20.50
2015,07,19,10,34,20.40
2015,07,19,10,35,20.40
2015,07,19,10,36,20.40
2015,07,19,10,37,20.40
2015,07,19,10,38,20.40
2015,07,19,10,39,20.40
2015,07,19,10,40,20.40
2015,07,19,10,41,20.30
2015,07,19,10,42,20.40
2015,07,19,10,43,20.40
2015,07,19,10,44,20.50
2015,07,19,10,45,20.50
2015,07,19,10,46,20.60
2015,07,19,10,47,20.80
2015,07,19,10,48,20.80
2015,07,19,10,49,21.00
2015,07,19,10,50,21.10
2015,07,19,10,51,21.20
2015,07,19,10,52,21.30
2015,07,19,10,53,21.40
2015,07,19,10,54,21.60
2015,07,19,10,55,21.80
2015,07,19,10,56,21.90
2015,07,19,10,57,22.00
2015,07,19,10,58,22.00
2015,07,19,10,59,22.10
2015,07,19,11,00,22.10
2015,07,19,11,01,22.10
2015,07,19,11,02,22.10
2015,07,19,11,03,22.00
2015,07,19,11,04,22.00
2015,07,19,11,05,21.90
2015,07,19,11,06,21.90
2015,07,19,11,07,21.90
2015,07,19,11,08,21.80
2015,07,19,11,09,21.80
2015,07,19,11,10,21.80
2015,07,19,11,11,21.80
2015,07,19,11,12,21.80
2015,07,19,11,13,21.90
2015,07,19,11,14,21.90
2015,07,19,11,15,21.90
2015,07,19,11,16,22.00
2015,07,19,11,17,22.00
2015,07,19,11,18,22.10
2015,07,19,11,19,22.20
2015,07,19,11,20,22.30
2015,07,19,11,21,22.50
2015,07,19,11,22,22.60
2015,07,19,11,23,22.70
2015,07,19,11,24,22.80
2015,07,19,11,25,22.90
2015,07,19,11,26,23.00
2015,07,19,11,27,23.10
2015,07,19,11,28,23.20
2015,07,19,11,29,23.20
2015,07,19,11,30,23.30
2015,07,19,11,31,23.30
2015,07,19,11,32,23.20
2015,07,19,11,33,23.00
2015,07,19,11,34,22.90
2015,07,19,11,35,22.90
2015,07,19,11,36,22.90
2015,07,19,11,37,22.80
2015,07,19,11,38,22.70
2015,07,19,11,39,22.70
2015,07,19,11,40,22.70
2015,07,19,11,41,22.70
2015,07,19,11,42,22.70
2015,07,19,11,43,22.60
2015,07,19,11,44,22.60
2015,07,19,11,45,22.60
2015,07,19,11,46,22.50
2015,07,19,11,47,22.50
2015,07,19,11,48,22.40
2015,07,19,11,49,22.40
2015,07,19,11,50,22.30
2015,07,19,11,51,22.20
2015,07,19,11,52,22.30
2015,07,19,11,53,22.30
2015,07,19,11,54,22.30
2015,07,19,11,55,22.30
2015,07,19,11,56,22.30
2015,07,19,11,57,22.20
2015,07,19,11,58,22.30
2015,07,19,11,59,22.20
2015,07,19,12,00,22.20
2015,07,19,12,01,22.10
2015,07,19,12,02,22.00
2015,07,19,12,03,21.80
2015,07,19,12,04,21.80
2015,07,19,12,05,21.80
2015,07,19,12,06,21.80
2015,07,19,12,07,21.90
2015,07,19,12,08,21.90
2015,07,19,12,09,21.80
2015,07,19,12,10,21.80
2015,07,19,12,11,21.80
2015,07,19,12,12,21.80
2015,07,19,12,13,21.70
2015,07,19,12,14,21.70
2015,07,19,12,15,21.60
2015,07,19,12,16,21.60
2015,07,19,12,17,21.70
2015,07,19,12,18,21.70
2015,07,19,12,19,21.60
2015,07,19,12,20,21.50
2015,07,19,12,21,21.40
2015,07,19,12,22,21.30
2015,07,19,12,23,21.20
2015,07,19,12,24,21.10
2015,07,19,12,25,21.00
2015,07,19,12,26,21.00
2015,07,19,12,27,20.90
2015,07,19,12,28,20.70
2015,07,19,12,29,20.70
2015,07,19,12,30,20.60
2015,07,19,12,31,20.60
2015,07,19,12,32,20.50
2015,07,19,12,33,20.40
2015,07,19,12,34,20.40
2015,07,19,12,35,20.40
2015,07,19,12,36,20.40
2015,07,19,12,37,20.40
2015,07,19,12,38,20.40
2015,07,19,12,39,20.40
2015,07,19,12,40,20.40
2015,07,19,12,41,20.40
2015,07,19,12,42,20.40
2015,07,19,12,43,20.50
2015,07,19,12,44,20.50
2015,07,19,12,45,20.50
2015,07,19,12,46,20.40
2015,07,19,12,47,20.40
2015,07,19,12,48,20.30
2015,07,19,12,49,20.30
2015,07,19,12,50,20.40
2015,07,19,12,51,20.40
2015,07,19,12,52,20.40
2015,07,19,12,53,20.40
2015,07,19,12,54,20.50
2015,07,19,12,55,20.50
2015,07,19,12,56,20.60
2015,07,19,12,57,20.50
2015,07,19,12,58,20.30
2015,07,19,12,59,20.30
2015,07,19,13,00,20.30
2015,07,19,13,01,20.20
2015,07,19,13,02,20.20
2015,07,19,13,03,20.20
2015,07,19,13,04,20.20
2015,07,19,13,05,20.20
2015,07,19,13,06,20.20
2015,07,19,13,07,20.20
2015,07,19,13,08,20.20
2015,07,19,13,09,20.10
2015,07,19,13,10,20.10
2015,07,19,13,11,20.00
2015,07,19,13,12,20.00
2015,07,19,13,13,20.10
2015,07,19,13,14,20.10
2015,07,19,13,15,20.00
2015,07,19,13,16,20.00
2015,07,19,13,17,19.90
2015,07,19,13,18,19.90
2015,07,19,13,19,19.90
2015,07,19,13,20,19.90
2015,07,19,13,21,19.90
2015,07,19,13,22,20.00
2015,07,19,13,23,20.00
2015,07,19,13,24,19.90
2015,07,19,13,25,19.90
2015,07,19,13,26,20.00
2015,07,19,13,27,19.90
2015,07,19,13,28,19.90
2015,07,19,13,29,19.90
2015,07,19,13,30,19.90
2015,07,19,13,31,19.90
2015,07,19,13,32,19.90
2015,07,19,13,33,20.00
2015,07,19,13,34,20.00
2015,07,19,13,35,19.90
2015,07,19,13,36,19.90
2015,07,19,13,37,19.90
2015,07,19,13,38,19.80
2015,07,19,13,39,19.80
2015,07,19,13,40,19.80
2015,07,19,13,41,19.80
2015,07,19,13,42,19.80
2015,07,19,13,43,19.80
2015,07,19,13,44,19.80
2015,07,19,13,45,19.80
2015,07,19,13,46,19.80
2015,07,19,13,47,19.80
2015,07,19,13,48,19.80
2015,07,19,13,49,19.80
2015,07,19,13,50,19.80
2015,07,19,13,51,19.80
2015,07,19,13,52,19.80
2015,07,19,13,53,19.80
2015,07,19,13,54,19.80
2015,07,19,13,55,19.70
2015,07,19,13,56,19.60
2015,07,19,13,57,19.60
2015,07,19,13,58,19.50
2015,07,19,13,59,19.40
2015,07,19,14,00,19.40
2015,07,19,14,01,19.40
2015,07,19,14,02,19.30
2015,07,19,14,03,19.20
2015,07,19,14,04,19.20
2015,07,19,14,05,19.10
2015,07,19,14,06,19.10
2015,07,19,14,07,19.10
2015,07,19,14,08,19.10
2015,07,19,14,09,19.00
2015,07,19,14,10,19.00
2015,07,19,14,11,19.00
2015,07,19,14,12,19.00
2015,07,19,14,13,18.90
2015,07,19,14,14,18.90
2015,07,19,14,15,18.80
2015,07,19,14,16,18.80
2015,07,19,14,17,18.80
2015,07,19,14,18,18.90
2015,07,19,14,19,19.00
2015,07,19,14,20,19.00
2015,07,19,14,21,19.00
2015,07,19,14,22,19.00
2015,07,19,14,23,19.00
2015,07,19,14,24,19.00
2015,07,19,14,25,18.90
2015,07,19,14,26,18.90
2015,07,19,14,27,18.80
2015,07,19,14,28,18.90
2015,07,19,14,29,19.00
2015,07,19,14,30,19.10
2015,07,19,14,31,19.10
2015,07,19,14,32,19.00
2015,07,19,14,33,18.90
2015,07,19,14,34,18.90
2015,07,19,14,35,18.90
2015,07,19,14,36,18.90
2015,07,19,14,37,18.90
2015,07,19,14,38,18.90
2015,07,19,14,39,18.80
2015,07,19,14,40,18.90
2015,07,19,14,41,18.90
2015,07,19,14,42,19.00
2015,07,19,14,43,19.10
2015,07,19,14,44,19.10
2015,07,19,14,45,19.20
2015,07,19,14,46,19.20
2015,07,19,14,47,19.20
2015,07,19,14,48,19.30
2015,07,19,14,49,19.30
2015,07,19,14,50,19.20
2015,07,19,14,51,19.20
2015,07,19,14,52,19.20
2015,07,19,14,53,19.10
2015,07,19,14,54,19.00
2015,07,19,14,55,19.00
2015,07,19,14,56,19.00
2015,07,19,14,57,19.00
2015,07,19,14,58,19.10
2015,07,19,14,59,19.20
2015,07,19,15,00,19.20
2015,07,19,15,01,19.10
2015,07,19,15,02,19.10
2015,07,19,15,03,19.00
2015,07,19,15,04,19.00
2015,07,19,15,05,19.10
2015,07,19,15,06,19.10
2015,07,19,15,07,19.20
2015,07,19,15,08,19.20
2015,07,19,15,09,19.20
2015,07,19,15,10,19.30
2015,07,19,15,11,19.30
2015,07,19,15,12,19.20
2015,07,19,15,13,19.20
2015,07,19,15,14,19.20
2015,07,19,15,15,19.10
2015,07,19,15,16,18.90
2015,07,19,15,17,18.80
2015,07,19,15,18,18.70
2015,07,19,15,19,18.70
2015,07,19,15,20,18.70
2015,07,19,15,21,18.70
2015,07,19,15,22,18.60
2015,07,19,15,23,18.60
2015,07,19,15,24,18.50
2015,07,19,15,25,18.50
2015,07,19,15,26,18.50
2015,07,19,15,27,18.50
2015,07,19,15,28,18.60
2015,07,19,15,29,18.60
2015,07,19,15,30,18.50
2015,07,19,15,31,18.30
2015,07,19,15,32,18.30
2015,07,19,15,33,18.30
2015,07,19,15,34,18.20
2015,07,19,15,35,18.20
2015,07,19,15,36,18.20
2015,07,19,15,37,18.10
2015,07,19,15,38,18.00
2015,07,19,15,39,18.00
2015,07,19,15,40,17.90
2015,07,19,15,41,17.90
2015,07,19,15,42,17.90
2015,07,19,15,43,18.00
2015,07,19,15,44,18.10
2015,07,19,15,45,18.20
2015,07,19,15,46,18.20
2015,07,19,15,47,18.20
2015,07,19,15,48,18.20
2015,07,19,15,49,18.20
2015,07,19,15,50,18.30
2015,07,19,15,51,18.30
2015,07,19,15,52,18.30
2015,07,19,15,53,18.30
2015,07,19,15,54,18.40
2015,07,19,15,55,18.40
2015,07,19,15,56,18.50
2015,07,19,15,57,18.50
2015,07,19,15,58,18.50
2015,07,19,15,59,18.40
2015,07,19,16,00,18.40
2015,07,19,16,01,18.30
2015,07,19,16,02,18.40
2015,07,19,16,03,18.40
2015,07,19,16,04,18.50
2015,07,19,16,05,18.40
2015,07,19,16,06,18.40
2015,07,19,16,07,18.30
2015,07,19,16,08,18.30
2015,07,19,16,09,18.30
2015,07,19,16,10,18.20
2015,07,19,16,11,18.10
2015,07,19,16,12,18.10
2015,07,19,16,13,18.10
2015,07,19,16,14,18.10
2015,07,19,16,15,18.20
2015,07,19,16,16,18.10
2015,07,19,16,17,18.00
2015,07,19,16,18,17.90
2015,07,19,16,19,17.80
2015,07,19,16,20,17.80
2015,07,19,16,21,17.70
2015,07,19,16,22,17.70
2015,07,19,16,23,17.80
2015,07,19,16,24,17.80
2015,07,19,16,25,17.80
2015,07,19,16,26,17.90
2015,07,19,16,27,17.90
2015,07,19,16,28,17.80
2015,07,19,16,29,17.80
2015,07,19,16,30,17.70
2015,07,19,16,31,17.60
2015,07,19,16,32,17.60
2015,07,19,16,33,17.50
2015,07,19,16,34,17.50
2015,07,19,16,35,17.50
2015,07,19,16,36,17.50
2015,07,19,16,37,17.50
2015,07,19,16,38,17.60
2015,07,19,16,39,17.60
2015,07,19,16,40,17.60
2015,07,19,16,41,17.60
2015,07,19,16,42,17.60
2015,07,19,16,43,17.70
2015,07,19,16,44,17.80
2015,07,19,16,45,17.80
2015,07,19,16,46,17.80
2015,07,19,16,47,17.80
2015,07,19,16,48,17.90
2015,07,19,16,49,18.00
2015,07,19,16,50,18.00
2015,07,19,16,51,18.00
2015,07,19,16,52,18.00
2015,07,19,16,53,18.00
2015,07,19,16,54,18.00
2015,07,19,16,55,18.00
2015,07,19,16,56,18.10
2015,07,19,16,57,18.10
2015,07,19,16,58,18.10
2015,07,19,16,59,18.10
2015,07,19,17,00,18.10
2015,07,19,17,01,18.10
2015,07,19,17,02,18.10
2015,07,19,17,03,18.10
2015,07,19,17,04,18.20
2015,07,19,17,05,18.20
2015,07,19,17,06,18.30
2015,07,19,17,07,18.30
2015,07,19,17,08,18.30
2015,07,19,17,09,18.30
2015,07,19,17,10,18.30
2015,07,19,17,11,18.20
2015,07,19,17,12,18.20
2015,07,19,17,13,18.20
2015,07,19,17,14,18.20
2015,07,19,17,15,18.20
2015,07,19,17,16,18.30
2015,07,19,17,17,18.30
2015,07,19,17,18,18.30
2015,07,19,17,19,18.30